Port Heiden, AK

2:29 AM AKDT on June 23, 2017 (GMT -0800)
Port Heiden

Weather History for PAPH - October, 2013

Change the Weather History Date:

Thursday, October 24, 2013

  Actual Average Record
Temperature  
Mean Temperature 46 °F -  
Max Temperature 51 °F 38 °F 51 °F (2013)
Min Temperature 41 °F 28 °F 12 °F (2012)
Degree Days  
Heating Degree Days 19    
Moisture  
Dew Point 31 °F    
Average Humidity 59    
Maximum Humidity 76    
Minimum Humidity 47    
Precipitation  
Precipitation 0.02 in - - ()
Sea Level Pressure  
Sea Level Pressure 29.05 in    
Wind  
Wind Speed 27 mph (SE)    
Max Wind Speed 44 mph    
Max Gust Speed 54 mph    
Visibility 10 miles    
Events      
Averages and records for this station are not official NWS values.
T = Trace of Precipitation, MM = Missing Value Source: NWS Daily Summary

Daily Weather History Graph

Daily Weather History Graph

Search for Another Location

Airport or City:

Trip Planner

Search our weather history database for the weather conditions in past years. The results will help you decide how hot, cold, wet, or windy it might be!

Date:

Astronomy

Oct. 24, 2013 Rise Set
Actual Time 9:28 AM AKDT 7:08 PM AKDT
Civil Twilight 8:48 AM AKDT 7:47 PM AKDT
Nautical Twilight 8:03 AM AKDT 8:32 PM AKDT
Astronomical Twilight 7:19 AM AKDT 9:16 PM AKDT
Moon 11:18 PM AKDT (10/24) 3:03 PM AKDT (10/24)
Length of Visible Light 10h 59m
Length of Day
9h 39m
Waning Gibbous, 70% of the Moon is Illuminated
Oct 24
Waning Gibbous
Oct 26
Last Quarter
Nov 3
New
Nov 9
First Quarter
Nov 17
Full

Hourly Weather History & Observations

Time (AKDT) Temp. Windchill Dew Point Humidity Pressure Visibility Wind Dir Wind Speed Gust Speed Precip Events Conditions
12:16 AM 41.0 °F 31.9 °F 32.0 °F 70% 29.16 in 10.0 mi East 19.6 mph 32.2 mph N/A   Overcast
12:36 AM 41.0 °F 32.8 °F 32.0 °F 70% 29.15 in 10.0 mi East 16.1 mph 23.0 mph N/A   Overcast
12:56 AM 41.0 °F 31.1 °F 33.8 °F 76% 29.10 in 10.0 mi East 23.0 mph 29.9 mph N/A   Mostly Cloudy
1:16 AM - - - N/A% 29.03 in 10.0 mi ESE 32.2 mph 47.2 mph N/A   Mostly Cloudy
1:36 AM - - - N/A% 29.00 in 10.0 mi ESE 34.5 mph 42.6 mph N/A   Mostly Cloudy
1:56 AM - - - N/A% 28.95 in 4.0 mi ESE 43.7 mph 54.1 mph 0.01 in   Overcast
2:16 AM - - - N/A% 28.96 in 5.0 mi ESE 35.7 mph 54.1 mph 0.01 in   Mostly Cloudy
2:36 AM - - - N/A% 28.93 in 10.0 mi ESE 40.3 mph 47.2 mph 0.01 in   Overcast
2:56 AM - - - N/A% 28.91 in 7.0 mi ESE 35.7 mph 49.5 mph 0.01 in   Overcast
3:16 AM - - - N/A% 28.91 in 10.0 mi ESE 34.5 mph 43.7 mph N/A   Overcast
3:36 AM - - - N/A% 28.86 in 10.0 mi ESE 35.7 mph 44.9 mph N/A   Mostly Cloudy
3:56 AM - - - N/A% 28.85 in 10.0 mi SE 40.3 mph 51.8 mph N/A   Mostly Cloudy
4:16 AM - - - N/A% 28.84 in 10.0 mi SE 36.8 mph 50.6 mph N/A   Partly Cloudy
4:36 AM - - - N/A% 28.82 in 10.0 mi SE 40.3 mph 48.3 mph N/A   Clear
4:56 AM - - - N/A% 28.81 in 10.0 mi SE 40.3 mph 50.6 mph N/A   Partly Cloudy
5:16 AM - - - N/A% 28.82 in 10.0 mi SE 35.7 mph 50.6 mph N/A   Partly Cloudy
5:36 AM - - - N/A% 28.83 in 10.0 mi SE 38.0 mph 51.8 mph N/A   Clear
5:56 AM - - - N/A% 28.82 in 10.0 mi SE 39.1 mph 46.0 mph N/A   Clear
6:16 AM - - - N/A% 28.85 in 10.0 mi SE 29.9 mph 43.7 mph N/A   Clear
6:36 AM - - - N/A% 28.89 in 10.0 mi SSE 20.7 mph 36.8 mph N/A   Scattered Clouds
6:56 AM 44.6 °F 36.9 °F 35.6 °F 71% 28.93 in 10.0 mi SSE 18.4 mph 25.3 mph N/A   Overcast
7:16 AM 44.6 °F 36.9 °F 33.8 °F 66% 28.92 in 10.0 mi SSE 18.4 mph 25.3 mph N/A   Scattered Clouds
7:36 AM 44.6 °F 35.5 °F 33.8 °F 66% 28.93 in 10.0 mi SSE 25.3 mph 31.1 mph N/A   Scattered Clouds
7:56 AM 44.6 °F 37.4 °F 32.0 °F 61% 28.94 in 10.0 mi SSE 16.1 mph 27.6 mph N/A   Clear
8:16 AM 44.6 °F 36.6 °F 32.0 °F 61% 28.95 in 10.0 mi SSE 19.6 mph 29.9 mph N/A   Clear
8:36 AM 44.6 °F 36.9 °F 32.0 °F 61% 28.97 in 10.0 mi SSE 18.4 mph 24.2 mph N/A   Scattered Clouds
8:56 AM 44.6 °F 36.9 °F 32.0 °F 61% 28.98 in 10.0 mi SSE 18.4 mph 21.9 mph N/A   Mostly Cloudy
9:16 AM 42.8 °F 34.0 °F 32.0 °F 66% 28.98 in 10.0 mi SSE 20.7 mph - N/A   Scattered Clouds
9:36 AM 42.8 °F 34.0 °F 30.2 °F 61% 28.97 in 10.0 mi SE 20.7 mph 25.3 mph N/A   Partly Cloudy
9:56 AM 44.6 °F 37.2 °F 30.2 °F 57% 29.00 in 10.0 mi SSE 17.3 mph - N/A   Partly Cloudy
10:16 AM 44.6 °F 38.1 °F 30.2 °F 57% 29.00 in 10.0 mi SSE 13.8 mph - N/A   Scattered Clouds
10:36 AM 44.6 °F 36.6 °F 30.2 °F 57% 29.00 in 10.0 mi SSE 19.6 mph 27.6 mph N/A   Partly Cloudy
10:56 AM 46.4 °F 37.7 °F 32.0 °F 57% 29.01 in 10.0 mi SSE 26.5 mph 32.2 mph N/A   Clear
11:16 AM 46.4 °F 38.1 °F 30.2 °F 53% 29.02 in 10.0 mi SE 24.2 mph 32.2 mph N/A   Clear
11:36 AM 46.4 °F 38.5 °F 32.0 °F 57% 29.03 in 10.0 mi SSE 21.9 mph 28.8 mph N/A   Clear
11:56 AM - - - N/A% 29.02 in 10.0 mi SE 28.8 mph 34.5 mph N/A   Clear
12:16 PM - - - N/A% 29.02 in 10.0 mi SSE 34.5 mph 41.4 mph N/A   Clear
12:36 PM 46.4 °F 37.9 °F 30.2 °F 53% 29.06 in 10.0 mi SSE 25.3 mph 31.1 mph N/A   Clear
12:56 PM 46.4 °F 39.5 °F 33.8 °F 62% 29.07 in 10.0 mi South 17.3 mph 28.8 mph N/A   Scattered Clouds
1:16 PM 48.2 °F - 33.8 °F 58% 29.07 in 10.0 mi SSE 28.8 mph 36.8 mph N/A   Scattered Clouds
1:36 PM - - - N/A% 29.05 in 10.0 mi SSE 29.9 mph 38.0 mph N/A   Clear
1:56 PM - - - N/A% 29.03 in 10.0 mi SSE 32.2 mph 39.1 mph N/A   Clear
2:16 PM - - - N/A% 29.04 in 10.0 mi SSE 34.5 mph 41.4 mph N/A   Clear
2:36 PM 51.8 °F - 32.0 °F 47% 29.07 in 10.0 mi SSE 28.8 mph 39.1 mph N/A   Clear
2:56 PM - - - N/A% 29.08 in 10.0 mi SSE 28.8 mph 43.7 mph N/A   Clear
3:16 PM 48.2 °F - 33.8 °F 58% 29.09 in 10.0 mi SSE 25.3 mph 35.7 mph N/A   Clear
3:36 PM 48.2 °F - 33.8 °F 58% 29.09 in 10.0 mi SSE 27.6 mph 33.4 mph N/A   Clear
3:56 PM - - - N/A% 29.09 in 10.0 mi SSE 28.8 mph 38.0 mph N/A   Clear
4:16 PM - - - N/A% 29.08 in 10.0 mi SSE 29.9 mph 36.8 mph N/A   Clear
4:36 PM 48.2 °F - 32.0 °F 54% 29.11 in 10.0 mi SSE 23.0 mph 38.0 mph N/A   Clear
4:56 PM 48.2 °F - 30.2 °F 50% 29.11 in 10.0 mi SSE 29.9 mph 39.1 mph N/A   Clear
5:16 PM 46.4 °F 37.5 °F 30.2 °F 53% 29.12 in 10.0 mi SSE 27.6 mph 33.4 mph N/A   Clear
5:36 PM 46.4 °F 38.1 °F 30.2 °F 53% 29.13 in 10.0 mi SSE 24.2 mph 31.1 mph N/A   Partly Cloudy
5:56 PM 46.4 °F 37.9 °F 30.2 °F 53% 29.14 in 10.0 mi SSE 25.3 mph 38.0 mph N/A   Clear
6:16 PM 44.6 °F 36.1 °F 30.2 °F 57% 29.15 in 10.0 mi SSE 21.9 mph 29.9 mph N/A   Clear
6:36 PM 44.6 °F 35.9 °F 30.2 °F 57% 29.16 in 10.0 mi SSE 23.0 mph 28.8 mph N/A   Clear
6:56 PM 44.6 °F 36.6 °F 28.4 °F 53% 29.17 in 10.0 mi SSE 19.6 mph 28.8 mph N/A   Clear
7:16 PM 44.6 °F 35.3 °F 28.4 °F 53% 29.18 in 10.0 mi SSE 26.5 mph 34.5 mph N/A   Clear
7:36 PM 44.6 °F 35.9 °F 28.4 °F 53% 29.19 in 10.0 mi SSE 23.0 mph 36.8 mph N/A   Clear
7:56 PM 42.8 °F 33.8 °F 30.2 °F 61% 29.20 in 10.0 mi SSE 21.9 mph 25.3 mph N/A   Clear
8:16 PM 44.6 °F 37.2 °F 28.4 °F 53% 29.22 in 10.0 mi SSE 17.3 mph 24.2 mph N/A   Clear
8:36 PM 42.8 °F 33.8 °F 30.2 °F 61% 29.23 in 10.0 mi SSE 21.9 mph 25.3 mph N/A   Clear
8:56 PM 42.8 °F 35.1 °F 30.2 °F 61% 29.24 in 10.0 mi SSE 16.1 mph - N/A   Partly Cloudy
9:16 PM 42.8 °F 34.5 °F 28.4 °F 57% 29.25 in 10.0 mi SSE 18.4 mph - N/A   Partly Cloudy
9:36 PM 42.8 °F 33.1 °F 30.2 °F 61% 29.25 in 10.0 mi SSE 25.3 mph 31.1 mph N/A   Partly Cloudy
9:56 PM 42.8 °F 33.8 °F 30.2 °F 61% 29.26 in 10.0 mi SSE 21.9 mph 26.5 mph N/A   Clear
10:16 PM 42.8 °F 32.5 °F 28.4 °F 57% 29.27 in 10.0 mi SSE 28.8 mph 36.8 mph N/A   Clear
10:36 PM 42.8 °F 34.3 °F 30.2 °F 61% 29.29 in 10.0 mi SSE 19.6 mph - N/A   Clear
10:56 PM 42.8 °F 33.5 °F 28.4 °F 57% 29.31 in 10.0 mi SSE 23.0 mph 33.4 mph N/A   Clear
11:16 PM 42.8 °F 33.8 °F 30.2 °F 61% 29.32 in 10.0 mi SSE 21.9 mph 28.8 mph N/A   Clear
11:36 PM 44.6 °F 35.9 °F 30.2 °F 57% 29.33 in 10.0 mi SSE 23.0 mph 33.4 mph N/A   Clear
11:56 PM 42.8 °F 34.5 °F 28.4 °F 57% 29.35 in 10.0 mi SSE 18.4 mph - N/A   Clear